User: anonymous   Login
Location: Nashville
(36.1660°N, 86.7840°W)
Time: 16:49:54
(UTC-06:00)
Language:

Hubble Space Telescope - Orbit

View from above orbital plane
View from above orbital plane
View from above satellite
View from above satellite

Ground track
Ground track

The orbit data is extracted from the following two-line orbital elements,

1 20580U 90037B   24051.41395801  .00006366  00000-0  31267-3 0  9990
2 20580  28.4699  53.1316 0002775 189.2512 170.8029 15.16021457659136
Epoch (UTC): 20 February 2024 09:56:05
Eccentricity: 0.0002775
inclination: 28.4699°
perigee height: 516 km
apogee height: 520 km
right ascension of ascending node: 53.1316°
argument of perigee: 189.2512°
revolutions per day: 15.16021457
mean anomaly at epoch: 170.8029°
orbit number at epoch: 65913

The dashed part of the orbit path shows where the satellite is in the earth's shadow,  

DLR